Weather History for Reading, PA

Change the Weather History Date:

Sunday, October 20, 2013

  Actual Average Record
Temperature  
Mean Temperature 52 °F 52 °F  
Max Temperature 62 °F 63 °F 80 °F (1969)
Min Temperature 41 °F 42 °F 22 °F (1974)
Degree Days  
Heating Degree Days 13 13  
Month to date heating degree days 93 201  
Since 1 July heating degree days 183 280  
Cooling Degree Days 0 0  
Month to date cooling degree days 42 5  
Year to date cooling degree days 1124 892  
Growing Degree Days 3 (Base 50)    
Moisture  
Dew Point 38 °F    
Average Humidity 63    
Maximum Humidity 89    
Minimum Humidity 36    
Precipitation  
Precipitation 0.00 in 0.10 in 1.30 in (1891)
Month to date precipitation 4.73 2.34  
Year to date precipitation 35.18 35.64  
Sea Level Pressure  
Sea Level Pressure 29.98 in    
Wind  
Wind Speed 7 mph (West)    
Max Wind Speed 18 mph    
Max Gust Speed 23 mph    
Visibility 9 miles    
Events      
T = Trace of Precipitation, MM = Missing Value Source: NWS Daily Summary

Daily Weather History Graph

Daily Weather History Graph

Search for Another Location

Airport:

Trip Planner

Search our weather history database for the weather conditions in past years. The results will help you decide how hot, cold, wet, or windy it might be!

Date:

Astronomy

Oct. 20, 2013 Rise Set
Actual Time 7:20 AM EDT 6:16 PM EDT
Civil Twilight 6:52 AM EDT 6:43 PM EDT
Nautical Twilight 6:20 AM EDT 7:15 PM EDT
Astronomical Twilight 5:49 AM EDT 7:47 PM EDT
Moon 7:22 PM EDT (10/20) 8:56 AM EDT (10/20)
Length of Visible Light 11h 51m
Length of Day
10h 55m
Full, 97% of the Moon is Illuminated
Oct 20
Full
Oct 26
Last Quarter
Nov 3
New
Nov 10
First Quarter
Nov 17
Full

Hourly Weather History & Observations

Time (EDT) Temp. Windchill Dew Point Humidity Pressure Visibility Wind Dir Wind Speed Gust Speed Precip Events Conditions
12:06 AM 51.8 °F - 50.0 °F 94% 29.81 in 1.5 mi Calm Calm - N/A   Partly Cloudy
12:16 AM 51.8 °F - 50.0 °F 94% 29.81 in 4.0 mi West 4.6 mph - N/A   Partly Cloudy
12:54 AM 52.0 °F - 48.0 °F 86% 29.83 in 10.0 mi West 9.2 mph - N/A   Clear
1:54 AM 50.0 °F - 41.0 °F 71% 29.88 in 10.0 mi WNW 12.7 mph - N/A   Clear
2:54 AM 48.0 °F - 39.0 °F 71% 29.89 in 10.0 mi West 4.6 mph - N/A   Clear
3:54 AM 48.0 °F - 37.0 °F 66% 29.90 in 10.0 mi West 9.2 mph - N/A   Clear
4:54 AM 46.9 °F - 37.0 °F 68% 29.93 in 10.0 mi West 8.1 mph - N/A   Clear
5:54 AM 46.0 °F 41.4 °F 36.0 °F 68% 29.94 in 10.0 mi West 9.2 mph - N/A   Clear
6:54 AM 46.0 °F 41.4 °F 36.0 °F 68% 29.96 in 10.0 mi West 9.2 mph - N/A   Clear
7:54 AM 45.0 °F 41.8 °F 36.0 °F 71% 29.98 in 10.0 mi West 5.8 mph - N/A   Clear
8:54 AM 48.9 °F - 37.0 °F 64% 30.00 in 10.0 mi WSW 6.9 mph - N/A   Clear
9:54 AM 52.0 °F - 37.0 °F 57% 30.01 in 10.0 mi WNW 11.5 mph 18.4 mph N/A   Clear
10:54 AM 54.0 °F - 37.9 °F 55% 30.02 in 10.0 mi West 12.7 mph 20.7 mph N/A   Clear
11:54 AM 57.0 °F - 37.9 °F 49% 30.03 in 10.0 mi WNW 12.7 mph 19.6 mph N/A   Clear
12:54 PM 59.0 °F - 37.9 °F 46% 30.02 in 10.0 mi WNW 12.7 mph 19.6 mph N/A   Clear
1:54 PM 61.0 °F - 37.9 °F 42% 30.01 in 10.0 mi West 13.8 mph 18.4 mph N/A   Partly Cloudy
2:54 PM 59.0 °F - 35.1 °F 41% 30.01 in 10.0 mi West 10.4 mph - N/A   Scattered Clouds
3:54 PM 59.0 °F - 35.1 °F 41% 30.01 in 10.0 mi NW 12.7 mph - N/A   Scattered Clouds
4:54 PM 60.1 °F - 34.0 °F 38% 30.02 in 10.0 mi WNW 9.2 mph - N/A   Clear
5:54 PM 57.9 °F - 34.0 °F 41% 30.03 in 10.0 mi West 3.5 mph - N/A   Clear
6:54 PM 54.0 °F - 35.1 °F 49% 30.04 in 10.0 mi SSW 3.5 mph - N/A   Clear
7:54 PM 46.9 °F - 37.0 °F 68% 30.06 in 10.0 mi Calm Calm - N/A   Clear
8:54 PM 50.0 °F - 37.0 °F 61% 30.07 in 10.0 mi Calm Calm - N/A   Clear
9:54 PM 46.9 °F - 37.9 °F 71% 30.08 in 10.0 mi Calm Calm - N/A   Clear
10:54 PM 46.0 °F - 37.9 °F 73% 30.09 in 10.0 mi Calm Calm - N/A   Clear
11:54 PM 44.1 °F - 39.0 °F 82% 30.10 in 10.0 mi Calm Calm - N/A   Clear